Location: Newark
(40.7066°N, 111.8219°W)
Time: 14:19:45
(UTC+00:00)

OTV 5 (USA 277) - Visible Passes

Search period start: 19 October 2019 00:00
Search period end: 29 October 2019 00:00
Orbit: 310 x 324 km, 54.5° (Epoch: 17 October)

Date Brightness Start Highest point End Pass type
(mag) Time Alt. Az. Time Alt. Az. Time Alt. Az.
19 Oct ? 12:24:58 28° NNW 12:26:10 55° NE 12:28:52 10° ESE visible
20 Oct ? 12:39:38 28° W 12:40:41 44° SW 12:43:19 10° SSE visible
21 Oct ? 12:54:26 14° WSW 12:55:03 15° SW 12:56:47 10° SSW visible
27 Oct ? 01:43:11 10° SSE 01:43:54 13° SSE 01:43:54 13° SSE visible
28 Oct ? 01:56:36 10° SSW 01:58:38 36° S 01:58:38 36° S visible
